Regional Weather Roundup
Issued by NWS

Home | Current Version | Previous Version | Graphics & Text | Print | Product List | Glossary On
Versions: 1 2 3 4 5 6 7 8 9 10 11 12 13 14 15 16 17 18 19 20 21 22 23 24 25 26 27 28 29 30 31 32 33 34 35 36 37 38 39 40 41 42 43 44 45 46 47 48 49 50
344
ASUS43 KFSD 231710
RWRSD

WEATHER ROUNDUP FOR SOUTH DAKOTA
NATIONAL WEATHER SERVICE SIOUX FALLS SD
1200 PM CDT WED AUG 23 2017

NOTE: "FAIR" INDICATES FEW OR NO CLOUDS BELOW 12,000 FEET WITH NO
SIGNIFICANT WEATHER AND/OR OBSTRUCTIONS TO VISIBILITY.


SDZ001>005-009-010-012>017-231800-
NORTHWEST AND NORTH CENTRAL SOUTH DAKOTA

CITY           SKY/WX    TMP DP  RH WIND       PRES   REMARKS
BUFFALO          N/A     76  51  41 SE7       29.99F
FAITH            N/A     76  55  48 VRB6      30.02F
MOBRIDGE       SUNNY     78  56  46 SE14      30.00F
$$

SDZ012>016-024>037-041>051-057-063-072>074-231800-
SOUTHWEST AND SOUTH CENTRAL SOUTH DAKOTA

CITY           SKY/WX    TMP DP  RH WIND       PRES   REMARKS
RAPID CTY ARPT SUNNY     78  51  38 N6        30.05F
PIERRE         MOSUNNY   76  55  48 S10       30.00F
CUSTER         SUNNY     80  39  23 S8        30.18F
ELLSWORTH AFB  SUNNY     77  50  38 N9        30.05F
PHILIP         SUNNY     83  55  38 VRB3      30.00F
PINE RIDGE     SUNNY     80  58  46 S8        30.06F
SPEARFISH      LGT RAIN  77  52  41 NE6       30.10S
WINNER         FAIR      80  57  45 SW20G26   30.04F
$$

SDZ004>011-016>023-039-040-231800-
NORTHEAST SOUTH DAKOTA

CITY           SKY/WX    TMP DP  RH WIND       PRES   REMARKS
ABERDEEN       SUNNY     75  52  44 SE10      30.06F
WATERTOWN      MOSUNNY   73  51  46 S8        30.10F
BROOKINGS      MOSUNNY   73  50  44 S8        30.13F
SISSETON         N/A     74  56  53 SE5       30.09F
$$

SDZ017-020-022-023-036>040-048>070-231800-
SOUTHEAST SOUTH DAKOTA

CITY           SKY/WX    TMP DP  RH WIND       PRES   REMARKS
SIOUX FALLS    MOSUNNY   76  55  48 S8        30.13F
HURON          SUNNY     76  57  51 SE12      30.05F
CHAMBERLAIN    MOSUNNY   78  59  52 S14       30.05F
MITCHELL       SUNNY     78  59  51 S9        30.07F
YANKTON        SUNNY     75  56  51 S10       30.12F
$$

ABBREVIATIONS USED IN REMARKS
   TC - TEMPERATURE IN CELSIUS
  WCI - WIND CHILL INDEX
   HX - HEAT INDEX
  VSB - VISIBILITY





USA.gov is the U.S. government's official web portal to all federal, state and local government web resources and services.